Regional Weather Roundup
Issued by NWS San Angelo, TX

Home | Current Version | Previous Version | Text Only | Print | Product List | Glossary On
Versions: 1 2 3 4 5 6 7 8 9 10 11 12 13 14 15 16 17 18 19 20 21 22 23 24 25 26 27 28 29 30 31 32 33 34 35 36 37 38 39 40 41 42 43 44 45 46 47 48 49 50
000
ASUS44 KSJT 291910
RWRSJT
WEST CENTRAL TEXAS REGIONAL WEATHER ROUNDUP
NATIONAL WEATHER SERVICE SAN ANGELO TX
200 PM CDT SAT AUG 29 2015

NOTE: "FAIR" INDICATES FEW OR NO CLOUDS BELOW 12,000 FEET WITH NO
SIGNIFICANT WEATHER AND/OR OBSTRUCTIONS TO VISIBILITY.

TXZ049-054-064>066-071>073-076>078-098-099-113-114-127-128-139-140-
154-155-168>170-292000
...LOCATIONS ACROSS WEST CENTRAL TEXAS...

CITY           SKY/WX    TMP DP  RH WIND       PRES   REMARKS
SAN ANGELO     CLOUDY    88  59  37 W7        30.09F
ABILENE        CLOUDY    88  59  37 NW12      30.07F
DYESS AFB      CLOUDY    89  59  36 NW9       30.06F
JUNCTION       MOSUNNY   90  57  32 MISG      30.07F
SWEETWATER     CLOUDY    83  49  30 NW3       30.13F
BROWNWOOD      NOT AVBL
COLEMAN        CLOUDY    84  62  46 W8        30.08S
SONORA         PTSUNNY   84  57  39 CALM      30.14F
OZONA          FAIR      81  55  41 CALM      30.15F
BRADY          SUNNY     90  61  37 W6        30.08S
$$

TEXAS PANHANDLE/OKLAHOMA PANHANDLE

CITY           SKY/WX    TMP DP  RH WIND       PRES   REMARKS
AMARILLO       SUNNY     87  60  40 NE7G17    30.17F
BORGER         SUNNY     88  60  38 NE13      30.14F
CANADIAN       SUNNY     87  61  41 NE5G10    30.09F
DALHART        LGT RAIN  87  50  27 NE13      30.21F
DUMAS          CLEAR     85  53  32 E12G17    30.19F
GUYMON         NOT AVBL
HEREFORD       PTCLDY    90  58  34 E12       30.17F
PAMPA          CLEAR     86  62  44 N8G17     30.16F
PERRYTON       SUNNY     88  55  32 NE10G20   30.14S
$$

SOUTHERN PANHANDLE/SOUTH PLAINS/ROLLING PLAINS

CITY           SKY/WX    TMP DP  RH WIND       PRES   REMARKS
LUBBOCK        CLOUDY    78  63  59 CALM      30.18F
SNYDER         LGT RAIN  75  61  62 N10       30.13F
CHILDRESS      PTSUNNY   88  66  48 W5        30.06F
SEMINOLE       CLOUDY    77  60  55 SW5       30.20S
$$

PERMIAN BASIN

CITY           SKY/WX    TMP DP  RH WIND       PRES   REMARKS
MIDLAND        LGT RAIN  76  58  53 NW9       30.16F
ODESSA         CLOUDY    79  53  40 NE15      30.16F
WINK           PTSUNNY   83  58  42 CALM      30.13F
$$

FAR WEST/SOUTHWEST MOUNTAINS/TRANS PECOS

CITY           SKY/WX    TMP DP  RH WIND       PRES   REMARKS
ALPINE         MOCLDY    76  56  50 E8        30.29F
DRYDEN           N/A     85  60  42 VRB6      30.09F
EL PASO        MOSUNNY   86  55  34 VRB5      30.15F
FORT STOCKTON  CLOUDY    78  56  46 E6        30.16F
GUADALUPE PASS MOSUNNY   79  55  43 E16G22    30.29F
MARFA          PTSUNNY   81  52  36 NE14      30.25F
PECOS          PTCLDY    84  53  33 E9        30.14F
$$

DALLAS/FORT WORTH METROPLEX

CITY           SKY/WX    TMP DP  RH WIND       PRES   REMARKS
DFW AIRPORT    CLOUDY    95  63  34 S13       29.96F
FTW MEACHAM    CLOUDY    95  62  33 S10       29.96F
DAL-EXECUTIVE  CLOUDY    89  64  43 VRB7      29.99F
GRAND PRAIRIE  SUNNY     93  64  38 S10       30.01S
ADDISON        MOSUNNY   90  64  43 SE12      30.00F
MESQUITE       CLEAR     93  63  36 S7        29.99F
LANCASTER      MOCLDY    91  61  37 S8        30.00F
$$

NORTH CENTRAL TEXAS

CITY           SKY/WX    TMP DP  RH WIND       PRES   REMARKS
SHRMAN/DENISON CLEAR     96  67  39 S9        29.98F
GAINESVILLE    MOSUNNY   96  59  28 S12       29.98F
BRIDGEPORT     MOCLDY    95  62  34 W8        29.98F
DENTON         PTSUNNY   96  63  33 SE10      29.96F
WAXAHACHIE     MOCLDY    91  65  42 S9        30.01F
GRANBURY       MOCLDY    95  60  30 S7        29.99F
$$

WESTERN NORTH TEXAS

CITY           SKY/WX    TMP DP  RH WIND       PRES   REMARKS
WICHITA FALLS  PTSUNNY   93  59  31 N8        29.96F
VERNON         MOCLDY    91  55  29 N7        30.01F
BRECKENRIDGE   CLOUDY    96  55  25 W14G20    29.99F HAZE
COMANCHE       CLOUDY    91  62  36 SW9       30.05F
$$

CENTRAL AND SOUTH CENTRAL TEXAS

CITY           SKY/WX    TMP DP  RH WIND       PRES   REMARKS
AUSTIN/BERGSTM PTSUNNY   91  64  40 CALM      30.02F
WACO           SUNNY     93  62  35 S14       30.01F
HILLSBORO      CLEAR     91  60  34 S12       30.00F
TEMPLE         SUNNY     91  63  38 S8        30.03F
KILLEEN-GRAY   MOSUNNY   91  60  34 VRB5      30.02F
FORT HOOD      SUNNY     92  63  37 S8        30.01F
GEORGETOWN     NOT AVBL
LAGO VISTA     FAIR      91  60  35 SE5       30.06F
SAN MARCOS     SUNNY     90  64  43 S3        30.04F
NEW BRAUNFELS  SUNNY     92  64  39 MISG      30.02F
RANDOLPH AFB   MOSUNNY   89  62  40 SE7       30.03F
SAN ANTONIO    MOSUNNY   90  62  39 S8        30.04F
STINSON        SUNNY     90  62  39 N6        30.01F
PLEASANTON     NOT AVBL
LA GRANGE      SUNNY     92  66  41 CALM      30.00F
GIDDINGS       CLEAR     90  62  39 CALM      30.06F
$$

EAST TEXAS

CITY           SKY/WX    TMP DP  RH WIND       PRES   REMARKS
PARIS          MOSUNNY   90  64  43 S10       30.00F
CLARKSVILLE    NOT AVBL
TYLER          PTSUNNY   89  68  49 VRB3      30.03F
LONGVIEW       MOSUNNY   90  69  50 SW6       30.02F
PALESTINE      NOT AVBL
NACOGDOCHES    MOSUNNY   91  63  38 E7        30.02F
$$

TEXAS HILL COUNTRY AND EDWARDS PLATEAU

CITY           SKY/WX    TMP DP  RH WIND       PRES   REMARKS
LLANO          MOCLDY    91  57  31 CALM      30.07F
HORSESHOE BAY  FAIR      92  59  33 NE3       30.04F
KERRVILLE      SUNNY     89  64  42 SE3       30.07F
FREDERICKSBRG  MOSUNNY   89  56  32 E6        30.07F
ROCKSPRINGS    PTCLDY    88  57  35 SE9       30.12F
HONDO          SUNNY     89  61  38 MISG      30.05F
UVALDE         CLEAR     89  62  39 E8        30.04F
DEL RIO        SUNNY     93  63  36 NE6       30.01F
$$

SOUTHEAST TEXAS

CITY           SKY/WX    TMP DP  RH WIND       PRES   REMARKS
COLLEGE STN    SUNNY     89  66  46 VRB3      30.03F
CALDWELL       PTCLDY    90  61  37 CALM      30.06F
CROCKETT       CLEAR     93  64  38 SW7       30.04F
BRENHAM        SUNNY     88  67  50 CALM      30.04F
HUNTSVILLE     SUNNY     92  63  38 VRB5      30.02F
CONROE         SUNNY     88  61  40 MISG      30.03F
HOUSTON BUSH   MOSUNNY   89  64  43 VRB7      30.03F
HOUSTON HOBBY  MOSUNNY   87  61  41 CALM      30.02F
PERLAND        MOSUNNY   90  62  39 E7        30.04F
WHARTON        CLEAR     89  60  38 SE5       30.02F
$$

THE UPPER TEXAS COAST

CITY           SKY/WX    TMP DP  RH WIND       PRES   REMARKS
ORANGE         PTCLDY    87  59  38 CALM      30.05F
PORT ARTHUR    SUNNY     89  66  46 VRB6      30.03F
GALVESTON      SUNNY     88  64  44 S8        30.04F
ANGLETON       MOSUNNY   88  67  49 VRB6      30.02F
BAY CITY       PTCLDY    88  67  48 CALM      30.02F
$$

TEXAS COASTAL BEND, RIO GRANDE PLAINS DEEP SOUTH TEXAS

CITY           SKY/WX    TMP DP  RH WIND       PRES   REMARKS
VICTORIA       SUNNY     90  64  42 CALM      30.01F
BEEVILLE       FAIR      91  67  44 E5        30.01F
ROCKPORT       SUNNY     89  68  49 E7        30.01F
PORT ARANSAS   CLEAR     87  67  51 SE6       30.01F
PORT LAVACA    CLEAR     89  70  53 SE10      30.02S
CORPUS CHRISTI MOSUNNY   92  65  40 E15G21    30.00F
KINGSVILLE NAS SUNNY     94  62  34 SE8       29.99F
COTULLA        SUNNY     93  55  27 NE6       30.01F
LAREDO         SUNNY     94  62  34 E9        30.00F
BROWNSVILLE    PTSUNNY   88  68  51 E9        29.98F
PORT ISABEL    SUNNY     90  68  48 E16       29.99F
HEBBRONVILLE   NOT AVBL
MCALLEN        PTSUNNY   92  66  42 SE8       29.98F
WESLACO        PTSUNNY   92  65  40 CALM      29.98F
FALFURRIAS     CLEAR     92  60  33 S5        29.99F
EDINBURG       CLEAR     93  58  30 N5        29.99F
$$



USA.gov is the U.S. government's official web portal to all federal, state and local government web resources and services.